Time,TemperatureF,DewpointF,PressureIn,WindDirection,WindDirectionDegrees,WindSpeedMPH,WindSpeedGustMPH,Humidity,HourlyPrecipIn,Conditions,Clouds,dailyrainin,SoftwareType,DateUTC
2013-05-18 00:00:00,64.2,12.4,29.63,SSW,212,7.0,12.0,13,0.00,,CLR,0.00,VWS V14.01,2013-05-18 06:00:00,
2013-05-18 00:01:00,64.1,12.3,29.63,SW,219,5.0,10.0,13,0.00,,SCT120,0.00,VWS V14.01,2013-05-18 06:01:00,
2013-05-18 00:06:00,63.8,10.2,29.62,West,280,6.0,10.0,12,0.00,,SCT120,0.00,VWS V14.01,2013-05-18 06:06:00,
2013-05-18 00:11:00,63.7,8.2,29.63,West,278,6.0,10.0,11,0.00,,SCT120,0.00,VWS V14.01,2013-05-18 06:11:00,
2013-05-18 00:16:00,63.6,11.9,29.63,SW,217,5.0,10.0,13,0.00,,SCT120,0.00,VWS V14.01,2013-05-18 06:16:00,
2013-05-18 00:21:00,62.9,11.3,29.63,SW,229,6.0,10.0,13,0.00,,SCT120,0.00,VWS V14.01,2013-05-18 06:21:00,
2013-05-18 00:26:00,62.3,10.9,29.63,SW,231,2.0,10.0,13,0.00,,SCT120,0.00,VWS V14.01,2013-05-18 06:26:00,
2013-05-18 00:30:00,62.2,12.4,29.63,SW,226,5.0,10.0,14,0.00,,CLR,0.00,VWS V14.01,2013-05-18 06:30:00,
2013-05-18 00:31:00,61.8,12.1,29.63,West,263,3.0,9.0,14,0.00,,BKN120,0.00,VWS V14.01,2013-05-18 06:31:00,
2013-05-18 00:36:00,61.8,12.1,29.63,SSW,205,4.0,12.0,14,0.00,,BKN120,0.00,VWS V14.01,2013-05-18 06:36:00,
2013-05-18 00:41:00,61.7,10.4,29.63,SSW,203,2.0,12.0,13,0.00,,BKN120,0.00,VWS V14.01,2013-05-18 06:41:00,
2013-05-18 00:46:00,61.6,8.5,29.62,SSE,166,3.0,12.0,12,0.00,,SCT120,0.00,VWS V14.01,2013-05-18 06:46:00,
2013-05-18 00:51:00,61.3,6.4,29.62,SSW,211,3.0,12.0,11,0.00,,SCT120,0.00,VWS V14.01,2013-05-18 06:51:00,
2013-05-18 00:56:00,61.1,6.2,29.62,SW,214,3.0,12.0,11,0.00,,SCT120,0.00,VWS V14.01,2013-05-18 06:56:00,
2013-05-18 01:00:00,61.1,6.2,29.62,SSW,205,2.0,12.0,11,0.00,,CLR,0.00,VWS V14.01,2013-05-18 07:00:00,
2013-05-18 01:02:00,60.9,6.1,29.62,SSE,148,2.0,5.0,11,0.00,,CLR,0.00,VWS V14.01,2013-05-18 07:02:00,
2013-05-18 01:07:00,60.7,5.9,29.62,SSW,200,2.0,5.0,11,0.00,,CLR,0.00,VWS V14.01,2013-05-18 07:07:00,
2013-05-18 01:12:00,60.6,5.8,29.62,SSW,206,3.0,5.0,11,0.00,,CLR,0.00,VWS V14.01,2013-05-18 07:12:00,
2013-05-18 01:17:00,60.3,7.5,29.62,SSW,194,2.0,5.0,12,0.00,,CLR,0.00,VWS V14.01,2013-05-18 07:17:00,
2013-05-18 01:22:00,59.7,7.0,29.62,SW,236,4.0,6.0,12,0.00,,CLR,0.00,VWS V14.01,2013-05-18 07:22:00,
2013-05-18 01:27:00,59.5,6.9,29.62,SW,229,4.0,8.0,12,0.00,,CLR,0.00,VWS V14.01,2013-05-18 07:27:00,
2013-05-18 01:30:00,59.4,6.8,29.62,SW,224,3.0,8.0,12,0.00,,CLR,0.00,VWS V14.01,2013-05-18 07:30:00,
2013-05-18 01:32:00,58.9,8.2,29.62,SW,232,3.0,6.0,13,0.00,,CLR,0.00,VWS V14.01,2013-05-18 07:32:00,
2013-05-18 01:37:00,58.9,8.2,29.62,SW,231,3.0,6.0,13,0.00,,CLR,0.00,VWS V14.01,2013-05-18 07:37:00,
2013-05-18 01:43:00,59.3,8.5,29.63,WSW,249,6.0,9.0,13,0.00,,CLR,0.00,VWS V14.01,2013-05-18 07:43:00,
2013-05-18 01:48:00,59.4,8.6,29.63,WSW,239,7.0,9.0,13,0.00,,CLR,0.00,VWS V14.01,2013-05-18 07:48:00,
2013-05-18 01:53:00,59.1,10.0,29.64,WSW,248,7.0,9.0,14,0.00,,CLR,0.00,VWS V14.01,2013-05-18 07:53:00,
2013-05-18 01:58:00,58.7,9.6,29.64,WSW,238,5.0,5.0,14,0.00,,CLR,0.00,VWS V14.01,2013-05-18 07:58:00,
2013-05-18 02:00:00,58.8,9.7,29.64,SW,219,3.0,9.0,14,0.00,,CLR,0.00,VWS V14.01,2013-05-18 08:00:00,
2013-05-18 02:03:00,58.3,9.3,29.64,SW,233,4.0,5.0,14,0.00,,CLR,0.00,VWS V14.01,2013-05-18 08:03:00,
2013-05-18 02:08:00,58.2,9.2,29.64,SW,221,2.0,6.0,14,0.00,,CLR,0.00,VWS V14.01,2013-05-18 08:08:00,
2013-05-18 02:13:00,57.7,8.9,29.64,WSW,245,2.0,6.0,14,0.00,,CLR,0.00,VWS V14.01,2013-05-18 08:13:00,
2013-05-18 02:18:00,57.4,10.1,29.64,WSW,249,3.0,6.0,15,0.00,,CLR,0.00,VWS V14.01,2013-05-18 08:18:00,
2013-05-18 02:23:00,57.0,9.8,29.64,West,273,3.0,6.0,15,0.00,,CLR,0.00,VWS V14.01,2013-05-18 08:23:00,
2013-05-18 02:28:00,56.8,11.1,29.64,West,262,0.0,3.0,16,0.00,,CLR,0.00,VWS V14.01,2013-05-18 08:28:00,
2013-05-18 02:30:00,56.8,11.1,29.64,WSW,256,3.0,6.0,16,0.00,,CLR,0.00,VWS V14.01,2013-05-18 08:30:00,
2013-05-18 02:33:00,56.3,10.7,29.64,WSW,252,0.0,3.0,16,0.00,,CLR,0.00,VWS V14.01,2013-05-18 08:33:00,
2013-05-18 02:38:00,55.6,10.1,29.64,South,180,0.0,3.0,16,0.00,,CLR,0.00,VWS V14.01,2013-05-18 08:38:00,
2013-05-18 02:43:00,55.4,10.0,29.64,South,182,1.0,3.0,16,0.00,,CLR,0.00,VWS V14.01,2013-05-18 08:43:00,
2013-05-18 02:48:00,55.1,11.1,29.65,SE,146,2.0,3.0,17,0.00,,CLR,0.00,VWS V14.01,2013-05-18 08:48:00,
2013-05-18 02:53:00,54.5,10.6,29.65,SE,133,2.0,3.0,17,0.00,,CLR,0.00,VWS V14.01,2013-05-18 08:53:00,
2013-05-18 02:58:00,53.8,11.3,29.65,ESE,104,2.0,3.0,18,0.00,,CLR,0.00,VWS V14.01,2013-05-18 08:58:00,
2013-05-18 03:00:00,54.0,11.5,29.64,ESE,117,2.0,3.0,18,0.00,,CLR,0.00,VWS V14.01,2013-05-18 09:00:00,
2013-05-18 03:03:00,53.3,10.9,29.65,SE,134,3.0,4.0,18,0.00,,CLR,0.00,VWS V14.01,2013-05-18 09:03:00,
2013-05-18 03:08:00,53.7,11.2,29.65,ESE,111,3.0,5.0,18,0.00,,CLR,0.00,VWS V14.01,2013-05-18 09:08:00,
2013-05-18 03:13:00,53.8,11.3,29.65,SE,131,6.0,6.0,18,0.00,,CLR,0.00,VWS V14.01,2013-05-18 09:13:00,
2013-05-18 03:19:00,54.5,10.6,29.65,SSE,151,4.0,7.0,17,0.00,,CLR,0.00,VWS V14.01,2013-05-18 09:19:00,
2013-05-18 03:24:00,54.8,10.8,29.65,SE,143,4.0,8.0,17,0.00,,CLR,0.00,VWS V14.01,2013-05-18 09:24:00,
2013-05-18 03:29:00,55.0,11.0,29.64,SSE,160,8.0,9.0,17,0.00,,CLR,0.00,VWS V14.01,2013-05-18 09:29:00,
2013-05-18 03:30:00,55.0,11.0,29.64,SE,142,5.0,8.0,17,0.00,,CLR,0.00,VWS V14.01,2013-05-18 09:30:00,
2013-05-18 03:34:00,55.3,11.2,29.64,SE,142,7.0,9.0,17,0.00,,CLR,0.00,VWS V14.01,2013-05-18 09:34:00,
2013-05-18 03:39:00,55.5,11.4,29.64,SE,132,5.0,9.0,17,0.00,,CLR,0.00,VWS V14.01,2013-05-18 09:39:00,
2013-05-18 03:44:00,55.5,11.4,29.64,SSE,152,6.0,9.0,17,0.00,,CLR,0.00,VWS V14.01,2013-05-18 09:44:00,
2013-05-18 03:49:00,55.5,12.7,29.64,SE,129,4.0,9.0,18,0.00,,CLR,0.00,VWS V14.01,2013-05-18 09:49:00,
2013-05-18 03:54:00,55.8,12.9,29.64,South,181,3.0,9.0,18,0.00,,CLR,0.00,VWS V14.01,2013-05-18 09:54:00,
2013-05-18 03:59:00,56.2,13.3,29.64,South,191,4.0,7.0,18,0.00,,CLR,0.00,VWS V14.01,2013-05-18 09:59:00,
2013-05-18 04:00:00,56.0,13.1,29.64,SSW,205,6.0,9.0,18,0.00,,CLR,0.00,VWS V14.01,2013-05-18 10:00:00,
2013-05-18 04:04:00,56.1,13.2,29.64,SSW,197,4.0,8.0,18,0.00,,CLR,0.00,VWS V14.01,2013-05-18 10:04:00,
2013-05-18 04:09:00,55.8,12.9,29.64,South,174,4.0,8.0,18,0.00,,CLR,0.00,VWS V14.01,2013-05-18 10:09:00,
2013-05-18 04:14:00,55.7,12.9,29.64,SSE,149,3.0,8.0,18,0.00,,CLR,0.00,VWS V14.01,2013-05-18 10:14:00,
2013-05-18 04:19:00,55.6,12.8,29.64,SSW,194,3.0,10.0,18,0.00,,CLR,0.00,VWS V14.01,2013-05-18 10:19:00,
2013-05-18 04:24:00,55.6,12.8,29.64,SW,219,3.0,10.0,18,0.00,,CLR,0.00,VWS V14.01,2013-05-18 10:24:00,
2013-05-18 04:29:00,55.4,13.9,29.64,South,174,6.0,7.0,19,0.00,,CLR,0.00,VWS V14.01,2013-05-18 10:29:00,
2013-05-18 04:30:00,55.5,13.9,29.64,South,184,3.0,10.0,19,0.00,,CLR,0.00,VWS V14.01,2013-05-18 10:30:00,
2013-05-18 04:34:00,55.4,13.9,29.64,SSE,166,6.0,8.0,19,0.00,,CLR,0.00,VWS V14.01,2013-05-18 10:34:00,
2013-05-18 04:39:00,55.5,13.9,29.64,South,187,6.0,8.0,19,0.00,,CLR,0.00,VWS V14.01,2013-05-18 10:39:00,
2013-05-18 04:44:00,55.4,13.9,29.64,South,181,3.0,9.0,19,0.00,,CLR,0.00,VWS V14.01,2013-05-18 10:44:00,
2013-05-18 04:49:00,55.3,13.8,29.64,South,182,2.0,9.0,19,0.00,,CLR,0.00,VWS V14.01,2013-05-18 10:49:00,
2013-05-18 04:54:00,55.1,13.6,29.64,SSW,212,6.0,9.0,19,0.00,,CLR,0.00,VWS V14.01,2013-05-18 10:54:00,
2013-05-18 04:59:00,55.4,13.9,29.64,SSW,212,5.0,9.0,19,0.00,,CLR,0.00,VWS V14.01,2013-05-18 10:59:00,
2013-05-18 05:00:00,55.3,13.8,29.64,SSE,163,3.0,9.0,19,0.00,,CLR,0.00,VWS V14.01,2013-05-18 11:00:00,
2013-05-18 05:04:00,55.3,13.8,29.64,SSW,201,5.0,9.0,19,0.00,,FEW120,0.00,VWS V14.01,2013-05-18 11:04:00,
2013-05-18 05:09:00,55.4,13.9,29.64,WSW,239,5.0,12.0,19,0.00,,FEW120,0.00,VWS V14.01,2013-05-18 11:09:00,
2013-05-18 05:14:00,55.2,14.9,29.64,SSW,208,4.0,12.0,20,0.00,,FEW120,0.00,VWS V14.01,2013-05-18 11:14:00,
2013-05-18 05:19:00,55.0,14.7,29.64,South,170,3.0,12.0,20,0.00,,FEW120,0.00,VWS V14.01,2013-05-18 11:19:00,
2013-05-18 05:24:00,54.5,14.3,29.64,NNW,338,1.0,12.0,20,0.00,,FEW120,0.00,VWS V14.01,2013-05-18 11:24:00,
2013-05-18 05:29:00,51.2,13.7,29.65,NE,40,4.0,4.0,22,0.00,,FEW120,0.00,VWS V14.01,2013-05-18 11:29:00,
2013-05-18 05:30:00,52.9,14.1,29.65,NNE,17,2.0,12.0,21,0.00,,CLR,0.00,VWS V14.01,2013-05-18 11:30:00,
2013-05-18 05:34:00,49.6,14.3,29.65,ENE,58,4.0,6.0,24,0.00,,CLR,0.00,VWS V14.01,2013-05-18 11:34:00,
2013-05-18 05:39:00,49.0,13.8,29.65,East,83,2.0,6.0,24,0.00,,CLR,0.00,VWS V14.01,2013-05-18 11:39:00,
2013-05-18 05:44:00,49.4,14.1,29.65,ENE,58,0.0,6.0,24,0.00,,CLR,0.00,VWS V14.01,2013-05-18 11:44:00,
2013-05-18 05:50:00,49.0,14.7,29.65,SE,144,0.0,6.0,25,0.00,,CLR,0.00,VWS V14.01,2013-05-18 11:50:00,
2013-05-18 05:55:00,48.8,14.6,29.65,SSW,210,1.0,6.0,25,0.00,,CLR,0.00,VWS V14.01,2013-05-18 11:55:00,
2013-05-18 06:00:00,48.2,14.0,29.65,SW,232,0.0,0.0,25,0.00,,CLR,0.00,VWS V14.01,2013-05-18 12:00:00,
2013-05-18 06:05:00,47.5,13.4,29.66,SSW,200,0.0,1.0,25,0.00,,CLR,0.00,VWS V14.01,2013-05-18 12:05:00,
2013-05-18 06:10:00,47.3,14.2,29.66,ESE,120,0.0,2.0,26,0.00,,CLR,0.00,VWS V14.01,2013-05-18 12:10:00,
2013-05-18 06:15:00,47.8,14.6,29.66,East,79,0.0,2.0,26,0.00,,CLR,0.00,VWS V14.01,2013-05-18 12:15:00,
2013-05-18 06:20:00,47.6,14.4,29.66,ENE,75,1.0,3.0,26,0.00,,CLR,0.00,VWS V14.01,2013-05-18 12:20:00,
2013-05-18 06:25:00,47.7,15.4,29.66,East,80,0.0,3.0,27,0.00,,CLR,0.00,VWS V14.01,2013-05-18 12:25:00,
2013-05-18 06:30:00,48.3,15.0,29.66,East,83,1.0,2.0,26,0.00,,CLR,0.00,VWS V14.01,2013-05-18 12:30:00,
2013-05-18 06:35:00,49.8,16.3,29.66,ENE,63,0.0,3.0,26,0.00,,CLR,0.00,VWS V14.01,2013-05-18 12:35:00,
2013-05-18 06:40:00,51.0,16.4,29.67,ENE,62,2.0,3.0,25,0.00,,CLR,0.00,VWS V14.01,2013-05-18 12:40:00,
2013-05-18 06:45:00,52.0,17.3,29.67,ENE,63,0.0,3.0,25,0.00,,CLR,0.00,VWS V14.01,2013-05-18 12:45:00,
2013-05-18 06:50:00,52.6,16.9,29.67,ENE,63,0.0,3.0,24,0.00,,CLR,0.00,VWS V14.01,2013-05-18 12:50:00,
2013-05-18 06:55:00,53.4,16.5,29.66,NE,44,0.0,3.0,23,0.00,,CLR,0.00,VWS V14.01,2013-05-18 12:55:00,
2013-05-18 07:00:00,54.4,16.4,29.67,NE,39,0.0,1.0,22,0.00,,CLR,0.00,VWS V14.01,2013-05-18 13:00:00,
2013-05-18 07:05:00,55.4,18.2,29.67,North,6,0.0,1.0,23,0.00,,CLR,0.00,VWS V14.01,2013-05-18 13:05:00,
2013-05-18 07:10:00,55.5,17.3,29.67,NNW,332,2.0,2.0,22,0.00,,CLR,0.00,VWS V14.01,2013-05-18 13:10:00,
2013-05-18 07:15:00,55.1,17.0,29.67,NNW,332,0.0,2.0,22,0.00,,CLR,0.00,VWS V14.01,2013-05-18 13:15:00,
2013-05-18 07:20:00,55.7,17.5,29.67,North,8,0.0,2.0,22,0.00,,CLR,0.00,VWS V14.01,2013-05-18 13:20:00,
2013-05-18 07:25:00,56.5,18.1,29.67,NE,47,1.0,2.0,22,0.00,,CLR,0.00,VWS V14.01,2013-05-18 13:25:00,
2013-05-18 07:30:00,56.7,17.2,29.67,NE,47,0.0,0.0,21,0.00,,CLR,0.00,VWS V14.01,2013-05-18 13:30:00,
2013-05-18 07:35:00,55.9,16.5,29.67,NE,46,0.0,1.0,21,0.00,,CLR,0.00,VWS V14.01,2013-05-18 13:35:00,
2013-05-18 07:40:00,55.2,17.0,29.67,West,274,1.0,1.0,22,0.00,,CLR,0.00,VWS V14.01,2013-05-18 13:40:00,
2013-05-18 07:45:00,54.6,16.5,29.67,West,263,2.0,2.0,22,0.00,,CLR,0.00,VWS V14.01,2013-05-18 13:45:00,
2013-05-18 07:50:00,54.1,17.1,29.67,West,276,0.0,2.0,23,0.00,,CLR,0.00,VWS V14.01,2013-05-18 13:50:00,
2013-05-18 07:55:00,53.8,17.9,29.67,West,276,0.0,2.0,24,0.00,,CLR,0.00,VWS V14.01,2013-05-18 13:55:00,
2013-05-18 08:00:00,53.6,17.7,29.68,West,276,0.0,0.0,24,0.00,,CLR,0.00,VWS V14.01,2013-05-18 14:00:00,
2013-05-18 08:05:00,53.7,17.8,29.68,West,276,0.0,0.0,24,0.00,,CLR,0.00,VWS V14.01,2013-05-18 14:05:00,
2013-05-18 08:10:00,53.8,16.9,29.68,West,276,0.0,0.0,23,0.00,,CLR,0.00,VWS V14.01,2013-05-18 14:10:00,
2013-05-18 08:15:00,53.8,17.9,29.68,West,276,0.0,0.0,24,0.00,,CLR,0.00,VWS V14.01,2013-05-18 14:15:00,
2013-05-18 08:20:00,53.8,18.8,29.68,West,276,0.0,0.0,25,0.00,,CLR,0.00,VWS V14.01,2013-05-18 14:20:00,
2013-05-18 08:25:00,53.8,17.9,29.68,WNW,285,0.0,0.0,24,0.00,,CLR,0.00,VWS V14.01,2013-05-18 14:25:00,
2013-05-18 08:30:00,53.9,17.0,29.68,WNW,285,0.0,0.0,23,0.00,,CLR,0.00,VWS V14.01,2013-05-18 14:30:00,
2013-05-18 08:35:00,54.0,17.1,29.69,WNW,292,0.0,0.0,23,0.00,,CLR,0.00,VWS V14.01,2013-05-18 14:35:00,
2013-05-18 08:40:00,54.2,17.2,29.69,WNW,295,0.0,0.0,23,0.00,,CLR,0.00,VWS V14.01,2013-05-18 14:40:00,
2013-05-18 08:45:00,54.5,17.5,29.69,WNW,295,0.0,0.0,23,0.00,,CLR,0.00,VWS V14.01,2013-05-18 14:45:00,
2013-05-18 08:51:00,54.7,17.6,29.69,WNW,292,0.0,0.0,23,0.00,,CLR,0.00,VWS V14.01,2013-05-18 14:51:00,
2013-05-18 08:56:00,54.7,16.6,29.68,WNW,287,0.0,0.0,22,0.00,,CLR,0.00,VWS V14.01,2013-05-18 14:56:00,
2013-05-18 09:00:00,54.7,16.6,29.68,WNW,287,0.0,0.0,22,0.00,,CLR,0.00,VWS V14.01,2013-05-18 15:00:00,
2013-05-18 09:01:00,54.7,17.6,29.68,WNW,287,0.0,0.0,23,0.00,,CLR,0.00,VWS V14.01,2013-05-18 15:01:00,
2013-05-18 09:06:00,54.7,16.6,29.69,West,266,2.0,4.0,22,0.00,,CLR,0.00,VWS V14.01,2013-05-18 15:06:00,
2013-05-18 09:11:00,54.8,17.7,29.68,West,276,2.0,4.0,23,0.00,,CLR,0.00,VWS V14.01,2013-05-18 15:11:00,
2013-05-18 09:16:00,55.0,17.9,29.68,NW,319,0.0,4.0,23,0.00,,CLR,0.00,VWS V14.01,2013-05-18 15:16:00,
2013-05-18 09:21:00,55.3,18.1,29.68,SW,228,0.0,4.0,23,0.00,,CLR,0.00,VWS V14.01,2013-05-18 15:21:00,
2013-05-18 09:26:00,56.1,18.8,29.68,WSW,243,0.0,4.0,23,0.00,,CLR,0.00,VWS V14.01,2013-05-18 15:26:00,
2013-05-18 09:30:00,56.2,18.9,29.68,West,270,0.0,4.0,23,0.00,,CLR,0.00,VWS V14.01,2013-05-18 15:30:00,
2013-05-18 09:31:00,56.4,19.1,29.68,West,264,0.0,2.0,23,0.00,,CLR,0.00,VWS V14.01,2013-05-18 15:31:00,
2013-05-18 09:36:00,56.7,19.3,29.67,NW,312,1.0,2.0,23,0.00,,CLR,0.00,VWS V14.01,2013-05-18 15:36:00,
2013-05-18 09:41:00,56.6,19.2,29.67,NW,311,0.0,2.0,23,0.00,,CLR,0.00,VWS V14.01,2013-05-18 15:41:00,
2013-05-18 09:46:00,56.8,19.4,29.67,WSW,246,0.0,2.0,23,0.00,,CLR,0.00,VWS V14.01,2013-05-18 15:46:00,
2013-05-18 09:51:00,57.1,19.7,29.67,WSW,257,0.0,2.0,23,0.00,,CLR,0.00,VWS V14.01,2013-05-18 15:51:00,
2013-05-18 09:56:00,57.3,18.8,29.67,WSW,257,2.0,3.0,22,0.00,,CLR,0.00,VWS V14.01,2013-05-18 15:56:00,
2013-05-18 10:00:00,57.3,18.8,29.67,SW,231,0.0,3.0,22,0.00,,CLR,0.00,VWS V14.01,2013-05-18 16:00:00,
2013-05-18 10:01:00,57.9,19.3,29.67,West,264,0.0,2.0,22,0.00,,CLR,0.00,VWS V14.01,2013-05-18 16:01:00,
2013-05-18 10:06:00,58.3,19.6,29.67,WSW,250,0.0,2.0,22,0.00,,CLR,0.00,VWS V14.01,2013-05-18 16:06:00,
2013-05-18 10:11:00,59.2,20.4,29.67,WSW,257,7.0,7.0,22,0.00,,CLR,0.00,VWS V14.01,2013-05-18 16:11:00,
2013-05-18 10:16:00,60.2,21.2,29.66,WNW,287,1.0,7.0,22,0.00,,CLR,0.00,VWS V14.01,2013-05-18 16:16:00,
2013-05-18 10:21:00,61.1,20.9,29.66,West,276,4.0,7.0,21,0.00,,CLR,0.00,VWS V14.01,2013-05-18 16:21:00,
2013-05-18 10:26:00,61.7,20.2,29.65,West,262,4.0,8.0,20,0.00,,CLR,0.00,VWS V14.01,2013-05-18 16:26:00,
2013-05-18 10:30:00,61.7,20.2,29.65,WNW,285,3.0,8.0,20,0.00,,CLR,0.00,VWS V14.01,2013-05-18 16:30:00,
2013-05-18 10:31:00,61.8,20.3,29.65,West,267,0.0,4.0,20,0.00,,CLR,0.00,VWS V14.01,2013-05-18 16:31:00,
2013-05-18 10:36:00,62.3,20.8,29.65,NNE,22,1.0,4.0,20,0.00,,CLR,0.00,VWS V14.01,2013-05-18 16:36:00,
2013-05-18 10:41:00,62.1,19.4,29.64,WNW,294,3.0,7.0,19,0.00,,CLR,0.00,VWS V14.01,2013-05-18 16:41:00,
2013-05-18 10:47:00,61.5,18.9,29.64,WSW,257,3.0,8.0,19,0.00,,CLR,0.00,VWS V14.01,2013-05-18 16:47:00,
2013-05-18 10:52:00,62.1,19.4,29.64,WSW,250,2.0,8.0,19,0.00,,CLR,0.00,VWS V14.01,2013-05-18 16:52:00,
2013-05-18 10:57:00,63.7,21.9,29.63,ENE,61,0.0,8.0,20,0.00,,CLR,0.00,VWS V14.01,2013-05-18 16:57:00,
2013-05-18 11:00:00,63.8,22.0,29.63,NNW,339,1.0,8.0,20,0.00,,CLR,0.00,VWS V14.01,2013-05-18 17:00:00,
2013-05-18 11:02:00,64.5,20.1,29.63,SSW,203,0.0,7.0,18,0.00,,CLR,0.00,VWS V14.01,2013-05-18 17:02:00,
2013-05-18 11:07:00,64.6,20.2,29.63,WSW,256,1.0,7.0,18,0.00,,CLR,0.00,VWS V14.01,2013-05-18 17:07:00,
2013-05-18 11:12:00,63.9,19.6,29.63,West,259,15.0,15.0,18,0.00,,CLR,0.00,VWS V14.01,2013-05-18 17:12:00,
2013-05-18 11:17:00,64.4,20.0,29.63,WSW,257,13.0,15.0,18,0.00,,CLR,0.00,VWS V14.01,2013-05-18 17:17:00,
2013-05-18 11:22:00,64.3,19.9,29.62,WNW,289,2.0,16.0,18,0.00,,CLR,0.00,VWS V14.01,2013-05-18 17:22:00,
2013-05-18 11:27:00,63.9,19.6,29.62,WSW,253,6.0,16.0,18,0.00,,CLR,0.00,VWS V14.01,2013-05-18 17:27:00,
2013-05-18 11:30:00,63.9,19.6,29.62,WSW,253,6.0,16.0,18,0.00,,CLR,0.00,VWS V14.01,2013-05-18 17:30:00,
2013-05-18 11:32:00,65.1,20.6,29.62,NW,308,5.0,16.0,18,0.00,,SCT100,0.00,VWS V14.01,2013-05-18 17:32:00,
2013-05-18 11:37:00,65.7,19.7,29.62,WNW,287,6.0,20.0,17,0.00,,SCT100,0.00,VWS V14.01,2013-05-18 17:37:00,
2013-05-18 11:42:00,66.3,20.2,29.61,WSW,253,8.0,20.0,17,0.00,,SCT100,0.00,VWS V14.01,2013-05-18 17:42:00,
2013-05-18 11:47:00,66.7,20.5,29.62,West,274,8.0,21.0,17,0.00,,BKN100,0.00,VWS V14.01,2013-05-18 17:47:00,
2013-05-18 11:52:00,66.6,19.0,29.61,SSW,213,4.0,21.0,16,0.00,,BKN100,0.00,VWS V14.01,2013-05-18 17:52:00,
2013-05-18 11:57:00,66.8,20.6,29.61,WSW,242,17.0,17.0,17,0.00,,BKN100,0.00,VWS V14.01,2013-05-18 17:57:00,
2013-05-18 12:00:00,66.8,20.6,29.61,SW,229,10.0,21.0,17,0.00,,CLR,0.00,VWS V14.01,2013-05-18 18:00:00,
2013-05-18 12:02:00,67.2,20.9,29.61,West,269,8.0,17.0,17,0.00,,BKN100,0.00,VWS V14.01,2013-05-18 18:02:00,
2013-05-18 12:07:00,67.5,19.8,29.61,West,259,9.0,24.0,16,0.00,,BKN100,0.00,VWS V14.01,2013-05-18 18:07:00,
2013-05-18 12:12:00,67.1,19.4,29.61,WSW,244,15.0,24.0,16,0.00,,BKN100,0.00,VWS V14.01,2013-05-18 18:12:00,
2013-05-18 12:17:00,66.2,20.1,29.60,WSW,238,5.0,24.0,17,0.00,,BKN100,0.00,VWS V14.01,2013-05-18 18:17:00,
2013-05-18 12:22:00,65.8,21.1,29.59,WSW,252,15.0,24.0,18,0.00,,BKN100,0.00,VWS V14.01,2013-05-18 18:22:00,
2013-05-18 12:27:00,66.0,20.0,29.59,West,262,14.0,14.0,17,0.00,,BKN100,0.00,VWS V14.01,2013-05-18 18:27:00,
2013-05-18 12:30:00,66.1,20.0,29.59,WSW,240,12.0,24.0,17,0.00,,CLR,0.00,VWS V14.01,2013-05-18 18:30:00,
2013-05-18 12:32:00,65.4,20.8,29.59,WSW,251,11.0,14.0,18,0.00,,BKN100,0.00,VWS V14.01,2013-05-18 18:32:00,
2013-05-18 12:37:00,66.8,20.6,29.58,WSW,240,11.0,16.0,17,0.00,,BKN100,0.00,VWS V14.01,2013-05-18 18:37:00,
2013-05-18 12:42:00,67.4,21.1,29.58,WNW,290,8.0,16.0,17,0.00,,BKN100,0.00,VWS V14.01,2013-05-18 18:42:00,
2013-05-18 12:47:00,66.7,19.1,29.58,West,260,9.0,19.0,16,0.00,,FEW100,0.00,VWS V14.01,2013-05-18 18:47:00,
2013-05-18 12:52:00,65.8,18.4,29.58,West,279,3.0,19.0,16,0.00,,FEW100,0.00,VWS V14.01,2013-05-18 18:52:00,
2013-05-18 12:58:00,65.7,19.7,29.58,WNW,299,10.0,17.0,17,0.00,,FEW100,0.00,VWS V14.01,2013-05-18 18:58:00,
2013-05-18 13:00:00,65.7,21.1,29.58,West,275,13.0,21.0,18,0.00,,CLR,0.00,VWS V14.01,2013-05-18 19:00:00,
2013-05-18 13:03:00,65.2,19.3,29.59,WSW,255,10.0,17.0,17,0.00,,SCT100,0.00,VWS V14.01,2013-05-18 19:03:00,
2013-05-18 13:08:00,65.2,20.7,29.58,West,260,8.0,17.0,18,0.00,,SCT100,0.00,VWS V14.01,2013-05-18 19:08:00,
2013-05-18 13:13:00,65.4,19.5,29.58,WNW,301,13.0,17.0,17,0.00,,SCT100,0.00,VWS V14.01,2013-05-18 19:13:00,
2013-05-18 13:18:00,66.1,20.0,29.58,West,275,18.0,18.0,17,0.00,,SCT100,0.00,VWS V14.01,2013-05-18 19:18:00,
2013-05-18 13:23:00,66.5,19.0,29.58,WSW,250,11.0,20.0,16,0.00,,SCT100,0.00,VWS V14.01,2013-05-18 19:23:00,
2013-05-18 13:28:00,66.6,20.5,29.57,SSW,213,5.0,9.0,17,0.00,,SCT100,0.00,VWS V14.01,2013-05-18 19:28:00,
2013-05-18 13:30:00,66.4,20.3,29.58,WSW,257,8.0,20.0,17,0.00,,CLR,0.00,VWS V14.01,2013-05-18 19:30:00,
2013-05-18 13:33:00,67.1,20.9,29.57,SW,219,12.0,23.0,17,0.00,,SCT100,0.00,VWS V14.01,2013-05-18 19:33:00,
2013-05-18 13:38:00,66.4,20.3,29.57,West,277,6.0,23.0,17,0.00,,SCT100,0.00,VWS V14.01,2013-05-18 19:38:00,
2013-05-18 13:43:00,67.2,20.9,29.58,WNW,288,7.0,23.0,17,0.00,,SCT100,0.00,VWS V14.01,2013-05-18 19:43:00,
2013-05-18 13:48:00,67.6,19.9,29.57,WNW,289,6.0,23.0,16,0.00,,SCT100,0.00,VWS V14.01,2013-05-18 19:48:00,
2013-05-18 13:53:00,68.0,20.2,29.57,WNW,285,7.0,23.0,16,0.00,,SCT100,0.00,VWS V14.01,2013-05-18 19:53:00,
2013-05-18 13:58:00,67.8,20.0,29.56,West,260,10.0,16.0,16,0.00,,SCT100,0.00,VWS V14.01,2013-05-18 19:58:00,
2013-05-18 14:00:00,67.7,19.9,29.57,WSW,255,8.0,23.0,16,0.00,,CLR,0.00,VWS V14.01,2013-05-18 20:00:00,
2013-05-18 14:03:00,68.0,20.2,29.56,SW,221,16.0,18.0,16,0.00,,SCT110,0.00,VWS V14.01,2013-05-18 20:03:00,
2013-05-18 14:08:00,68.1,20.2,29.56,WNW,284,9.0,21.0,16,0.00,,SCT110,0.00,VWS V14.01,2013-05-18 20:08:00,
2013-05-18 14:13:00,68.8,20.8,29.56,WSW,248,19.0,21.0,16,0.00,,SCT110,0.00,VWS V14.01,2013-05-18 20:13:00,
2013-05-18 14:18:00,68.4,20.5,29.56,WSW,248,9.0,21.0,16,0.00,,SCT110,0.00,VWS V14.01,2013-05-18 20:18:00,
2013-05-18 14:23:00,68.5,20.6,29.56,SW,235,13.0,21.0,16,0.00,,SCT110,0.00,VWS V14.01,2013-05-18 20:23:00,
2013-05-18 14:28:00,68.2,18.8,29.56,SW,224,11.0,13.0,15,0.00,,SCT110,0.00,VWS V14.01,2013-05-18 20:28:00,
2013-05-18 14:30:00,68.2,20.3,29.56,SSW,206,6.0,21.0,16,0.00,,CLR,0.00,VWS V14.01,2013-05-18 20:30:00,
2013-05-18 14:33:00,68.2,20.3,29.56,SSW,210,13.0,18.0,16,0.00,,FEW110,0.00,VWS V14.01,2013-05-18 20:33:00,
2013-05-18 14:38:00,68.6,19.1,29.56,WSW,243,6.0,18.0,15,0.00,,FEW110,0.00,VWS V14.01,2013-05-18 20:38:00,
2013-05-18 14:43:00,69.3,19.7,29.55,West,273,7.0,18.0,15,0.00,,FEW110,0.00,VWS V14.01,2013-05-18 20:43:00,
2013-05-18 14:48:00,69.1,19.5,29.55,WNW,290,6.0,18.0,15,0.00,,FEW100,0.00,VWS V14.01,2013-05-18 20:48:00,
2013-05-18 14:53:00,68.9,20.9,29.55,West,275,10.0,18.0,16,0.00,,FEW100,0.00,VWS V14.01,2013-05-18 20:53:00,
2013-05-18 14:58:00,69.4,19.8,29.55,West,277,9.0,9.0,15,0.00,,FEW100,0.00,VWS V14.01,2013-05-18 20:58:00,
2013-05-18 15:00:00,69.5,19.9,29.55,WNW,290,6.0,18.0,15,0.00,,CLR,0.00,VWS V14.01,2013-05-18 21:00:00,
2013-05-18 15:03:00,69.6,19.9,29.54,West,266,10.0,16.0,15,0.00,,BKN110,0.00,VWS V14.01,2013-05-18 21:03:00,
2013-05-18 15:08:00,69.4,18.2,29.55,West,278,12.0,19.0,14,0.00,,BKN110,0.00,VWS V14.01,2013-05-18 21:08:00,
2013-05-18 15:13:00,68.6,17.5,29.54,West,271,10.0,19.0,14,0.00,,BKN110,0.00,VWS V14.01,2013-05-18 21:13:00,
2013-05-18 15:18:00,68.1,17.1,29.54,WSW,256,9.0,19.0,14,0.00,,BKN110,0.00,VWS V14.01,2013-05-18 21:18:00,
2013-05-18 15:24:00,67.9,18.6,29.54,WNW,297,6.0,19.0,15,0.00,,BKN110,0.00,VWS V14.01,2013-05-18 21:24:00,
2013-05-18 15:29:00,67.9,17.0,29.54,SW,232,11.0,18.0,14,0.00,,BKN110,0.00,VWS V14.01,2013-05-18 21:29:00,
2013-05-18 15:30:00,67.9,18.6,29.54,SSW,197,12.0,19.0,15,0.00,,CLR,0.00,VWS V14.01,2013-05-18 21:30:00,
2013-05-18 15:34:00,66.9,17.8,29.54,WSW,257,5.0,18.0,15,0.00,,BKN110,0.00,VWS V14.01,2013-05-18 21:34:00,
2013-05-18 15:39:00,66.4,18.9,29.54,WNW,282,9.0,18.0,16,0.00,,BKN110,0.00,VWS V14.01,2013-05-18 21:39:00,
2013-05-18 15:44:00,66.4,18.9,29.53,WSW,242,12.0,21.0,16,0.00,,BKN110,0.00,VWS V14.01,2013-05-18 21:44:00,
2013-05-18 15:49:00,65.7,19.7,29.54,WSW,238,11.0,21.0,17,0.00,,BKN110,0.00,VWS V14.01,2013-05-18 21:49:00,
2013-05-18 15:54:00,65.3,19.4,29.55,West,269,15.0,21.0,17,0.00,,BKN110,0.00,VWS V14.01,2013-05-18 21:54:00,
2013-05-18 15:59:00,64.6,20.2,29.55,NW,304,13.0,17.0,18,0.00,,BKN110,0.00,VWS V14.01,2013-05-18 21:59:00,
2013-05-18 16:00:00,64.8,19.0,29.55,WSW,243,12.0,21.0,17,0.00,,CLR,0.00,VWS V14.01,2013-05-18 22:00:00,
2013-05-18 16:04:00,63.9,20.9,29.56,WSW,257,11.0,22.0,19,0.00,,BKN110,0.00,VWS V14.01,2013-05-18 22:04:00,
2013-05-18 16:09:00,63.7,20.7,29.56,WSW,245,14.0,22.0,19,0.00,,BKN110,0.00,VWS V14.01,2013-05-18 22:09:00,
2013-05-18 16:14:00,63.0,22.5,29.56,West,270,13.0,27.0,21,0.00,,BKN110,0.00,VWS V14.01,2013-05-18 22:14:00,
2013-05-18 16:19:00,62.9,22.4,29.56,SSW,194,6.0,27.0,21,0.00,,BKN110,0.00,VWS V14.01,2013-05-18 22:19:00,
2013-05-18 16:24:00,62.7,23.3,29.56,SSE,155,8.0,27.0,22,0.00,,BKN110,0.00,VWS V14.01,2013-05-18 22:24:00,
2013-05-18 16:29:00,62.3,23.0,29.56,SW,228,4.0,10.0,22,0.00,,BKN110,0.00,VWS V14.01,2013-05-18 22:29:00,
2013-05-18 16:30:00,62.5,23.2,29.56,South,174,5.0,27.0,22,0.00,,CLR,0.00,VWS V14.01,2013-05-18 22:30:00,
2013-05-18 16:34:00,62.0,22.8,29.56,SSW,211,3.0,10.0,22,0.00,,FEW095,0.00,VWS V14.01,2013-05-18 22:34:00,
2013-05-18 16:39:00,62.0,22.8,29.57,SW,232,9.0,14.0,22,0.00,,FEW095,0.00,VWS V14.01,2013-05-18 22:39:00,
2013-05-18 16:44:00,61.5,24.4,29.58,West,276,12.0,18.0,24,0.00,,FEW095,0.00,VWS V14.01,2013-05-18 22:44:00,
2013-05-18 16:49:00,59.9,25.0,29.59,SW,217,6.0,31.0,26,0.00,,SCT120,0.00,VWS V14.01,2013-05-18 22:49:00,
2013-05-18 16:54:00,58.7,25.7,29.57,SSW,196,7.0,31.0,28,0.00,,SCT120,0.00,VWS V14.01,2013-05-18 22:54:00,
2013-05-18 16:59:00,58.5,25.5,29.57,SSE,158,6.0,9.0,28,0.00,,SCT120,0.00,VWS V14.01,2013-05-18 22:59:00,
2013-05-18 17:00:00,58.6,26.5,29.57,SSW,194,7.0,31.0,29,0.00,,CLR,0.00,VWS V14.01,2013-05-18 23:00:00,
2013-05-18 17:04:00,58.8,25.8,29.56,SE,139,2.0,10.0,28,0.00,,OVC110,0.00,VWS V14.01,2013-05-18 23:04:00,
2013-05-18 17:09:00,59.3,24.4,29.56,South,190,2.0,10.0,26,0.00,,OVC110,0.00,VWS V14.01,2013-05-18 23:09:00,
2013-05-18 17:14:00,59.6,25.6,29.56,South,174,8.0,12.0,27,0.00,,OVC110,0.00,VWS V14.01,2013-05-18 23:14:00,
2013-05-18 17:19:00,59.5,25.5,29.55,SE,132,5.0,12.0,27,0.00,,OVC110,0.00,VWS V14.01,2013-05-18 23:19:00,
2013-05-18 17:24:00,59.5,25.5,29.55,SE,146,3.0,12.0,27,0.00,,OVC110,0.00,VWS V14.01,2013-05-18 23:24:00,
2013-05-18 17:29:00,59.4,25.4,29.55,East,89,8.0,9.0,27,0.00,,OVC110,0.00,VWS V14.01,2013-05-18 23:29:00,
2013-05-18 17:30:00,59.5,25.5,29.55,East,91,3.0,12.0,27,0.00,,CLR,0.00,VWS V14.01,2013-05-18 23:30:00,
2013-05-18 17:34:00,59.4,25.4,29.55,ESE,110,7.0,9.0,27,0.00,,OVC100,0.00,VWS V14.01,2013-05-18 23:34:00,
2013-05-18 17:39:00,59.4,25.4,29.55,East,87,3.0,9.0,27,0.00,,OVC100,0.00,VWS V14.01,2013-05-18 23:39:00,
2013-05-18 17:44:00,59.3,25.4,29.56,ENE,65,1.0,9.0,27,0.00,,OVC100,0.00,VWS V14.01,2013-05-18 23:44:00,
2013-05-18 17:49:00,59.3,31.0,29.56,NE,36,0.0,9.0,34,0.00,,OVC100,0.00,VWS V14.01,2013-05-18 23:49:00,
2013-05-18 17:54:00,58.4,32.9,29.55,ENE,71,10.0,10.0,38,0.00,,OVC100,0.00,VWS V14.01,2013-05-18 23:54:00,
2013-05-18 18:00:00,57.6,29.5,29.55,SSW,195,6.0,15.0,34,0.00,,OVC100,0.00,VWS V14.01,2013-05-19 00:00:00,
2013-05-18 18:05:00,57.8,28.2,29.54,South,176,4.0,15.0,32,0.00,,BKN110,0.00,VWS V14.01,2013-05-19 00:05:00,
2013-05-18 18:10:00,58.8,27.5,29.55,SE,131,7.0,15.0,30,0.00,,BKN110,0.00,VWS V14.01,2013-05-19 00:10:00,
2013-05-18 18:15:00,59.3,26.2,29.55,ESE,105,4.0,15.0,28,0.00,,BKN110,0.00,VWS V14.01,2013-05-19 00:15:00,
2013-05-18 18:20:00,60.1,26.0,29.54,SW,222,4.0,17.0,27,0.00,,BKN110,0.00,VWS V14.01,2013-05-19 00:20:00,
2013-05-18 18:25:00,61.0,26.8,29.54,South,183,7.0,17.0,27,0.00,,BKN110,0.00,VWS V14.01,2013-05-19 00:25:00,
2013-05-18 18:30:00,61.9,26.7,29.55,SW,215,6.0,8.0,26,0.00,,BKN110,0.00,VWS V14.01,2013-05-19 00:30:00,
2013-05-18 18:35:00,62.4,25.2,29.54,SSE,149,5.0,12.0,24,0.00,,BKN110,0.00,VWS V14.01,2013-05-19 00:35:00,
2013-05-18 18:40:00,62.5,25.2,29.54,SW,217,3.0,13.0,24,0.00,,BKN110,0.00,VWS V14.01,2013-05-19 00:40:00,
2013-05-18 18:45:00,63.0,26.6,29.54,SW,221,7.0,13.0,25,0.00,,BKN110,0.00,VWS V14.01,2013-05-19 00:45:00,
2013-05-18 18:50:00,63.1,26.7,29.54,SW,226,3.0,13.0,25,0.00,,SCT110,0.00,VWS V14.01,2013-05-19 00:50:00,
2013-05-18 18:55:00,62.8,22.3,29.54,WSW,249,6.0,15.0,21,0.00,,SCT110,0.00,VWS V14.01,2013-05-19 00:55:00,
2013-05-18 19:00:00,62.4,22.0,29.55,West,260,11.0,15.0,21,0.00,,SCT110,0.00,VWS V14.01,2013-05-19 01:00:00,
2013-05-18 19:05:00,61.9,21.6,29.55,West,262,12.0,15.0,21,0.00,,BKN110,0.00,VWS V14.01,2013-05-19 01:05:00,
2013-05-18 19:10:00,61.5,21.2,29.55,West,262,7.0,15.0,21,0.00,,BKN110,0.00,VWS V14.01,2013-05-19 01:10:00,
2013-05-18 19:15:00,61.3,19.9,29.55,WSW,246,11.0,15.0,20,0.00,,BKN110,0.00,VWS V14.01,2013-05-19 01:15:00,
2013-05-18 19:20:00,61.1,18.5,29.55,WNW,287,11.0,15.0,19,0.00,,BKN110,0.00,VWS V14.01,2013-05-19 01:20:00,
2013-05-18 19:25:00,61.0,18.5,29.55,West,262,9.0,15.0,19,0.00,,BKN110,0.00,VWS V14.01,2013-05-19 01:25:00,
2013-05-18 19:30:00,60.8,18.3,29.55,WNW,283,6.0,14.0,19,0.00,,BKN110,0.00,VWS V14.01,2013-05-19 01:30:00,
2013-05-18 19:35:00,60.7,18.2,29.55,West,270,7.0,14.0,19,0.00,,BKN110,0.00,VWS V14.01,2013-05-19 01:35:00,
2013-05-18 19:40:00,60.4,19.2,29.56,West,260,5.0,19.0,20,0.00,,BKN110,0.00,VWS V14.01,2013-05-19 01:40:00,
2013-05-18 19:45:00,59.9,18.8,29.56,WNW,287,3.0,19.0,20,0.00,,BKN110,0.00,VWS V14.01,2013-05-19 01:45:00,
2013-05-18 19:50:00,59.3,19.4,29.57,West,267,3.0,19.0,21,0.00,,BKN110,0.00,VWS V14.01,2013-05-19 01:50:00,
2013-05-18 19:55:00,58.9,19.1,29.57,West,281,2.0,19.0,21,0.00,,BKN110,0.00,VWS V14.01,2013-05-19 01:55:00,
2013-05-18 20:00:00,58.8,20.1,29.57,West,277,3.0,19.0,22,0.00,,CLR,0.00,VWS V14.01,2013-05-19 02:00:00,
2013-05-18 20:01:00,58.5,19.8,29.57,West,281,3.0,5.0,22,0.00,,BKN110,0.00,VWS V14.01,2013-05-19 02:01:00,
2013-05-18 20:06:00,58.2,19.6,29.58,NW,321,1.0,6.0,22,0.00,,FEW110,0.00,VWS V14.01,2013-05-19 02:06:00,
2013-05-18 20:11:00,58.1,20.5,29.58,West,263,3.0,6.0,23,0.00,,FEW110,0.00,VWS V14.01,2013-05-19 02:11:00,
2013-05-18 20:16:00,57.9,20.4,29.58,West,266,2.0,7.0,23,0.00,,FEW110,0.00,VWS V14.01,2013-05-19 02:16:00,
2013-05-18 20:21:00,57.7,20.2,29.58,WNW,290,6.0,10.0,23,0.00,,FEW110,0.00,VWS V14.01,2013-05-19 02:21:00,
2013-05-18 20:26:00,57.3,22.7,29.58,NW,307,2.0,10.0,26,0.00,,FEW110,0.00,VWS V14.01,2013-05-19 02:26:00,
2013-05-18 20:30:00,57.2,22.6,29.58,NW,316,2.0,10.0,26,0.00,,CLR,0.00,VWS V14.01,2013-05-19 02:30:00,
2013-05-18 20:31:00,56.8,23.2,29.58,NW,308,1.0,5.0,27,0.00,,BKN110,0.00,VWS V14.01,2013-05-19 02:31:00,
2013-05-18 20:36:00,56.5,23.8,29.58,WNW,298,0.0,5.0,28,0.00,,BKN110,0.00,VWS V14.01,2013-05-19 02:36:00,
2013-05-18 20:41:00,56.1,24.3,29.58,NNW,345,0.0,5.0,29,0.00,,BKN110,0.00,VWS V14.01,2013-05-19 02:41:00,
2013-05-18 20:46:00,55.7,24.8,29.58,NNE,30,0.0,5.0,30,0.00,,BKN110,0.00,VWS V14.01,2013-05-19 02:46:00,
2013-05-18 20:51:00,55.4,24.5,29.58,East,79,1.0,5.0,30,0.00,,BKN110,0.00,VWS V14.01,2013-05-19 02:51:00,
2013-05-18 20:56:00,55.0,24.2,29.58,SE,139,0.0,5.0,30,0.00,,BKN110,0.00,VWS V14.01,2013-05-19 02:56:00,
2013-05-18 21:00:00,55.0,24.9,29.58,SE,138,1.0,5.0,31,0.00,,CLR,0.00,VWS V14.01,2013-05-19 03:00:00,
2013-05-18 21:01:00,54.9,24.9,29.59,West,281,0.0,3.0,31,0.00,,SCT110,0.00,VWS V14.01,2013-05-19 03:01:00,
2013-05-18 21:06:00,54.3,24.3,29.59,ESE,122,0.0,3.0,31,0.00,,SCT110,0.00,VWS V14.01,2013-05-19 03:06:00,
2013-05-18 21:11:00,53.9,24.7,29.59,NNE,25,0.0,3.0,32,0.00,,SCT110,0.00,VWS V14.01,2013-05-19 03:11:00,
2013-05-18 21:16:00,54.2,25.0,29.60,WNW,301,3.0,3.0,32,0.00,,SCT110,0.00,VWS V14.01,2013-05-19 03:16:00,
2013-05-18 21:21:00,54.7,24.7,29.60,West,266,1.0,4.0,31,0.00,,SCT110,0.00,VWS V14.01,2013-05-19 03:21:00,
2013-05-18 21:26:00,54.5,24.5,29.60,SSW,203,1.0,4.0,31,0.00,,SCT110,0.00,VWS V14.01,2013-05-19 03:26:00,
2013-05-18 21:30:00,54.4,24.4,29.60,SSW,204,1.0,4.0,31,0.00,,CLR,0.00,VWS V14.01,2013-05-19 03:30:00,
2013-05-18 21:31:00,54.2,25.0,29.60,SSW,211,0.0,3.0,32,0.00,,CLR,0.00,VWS V14.01,2013-05-19 03:31:00,
2013-05-18 21:36:00,53.8,24.6,29.60,East,86,2.0,3.0,32,0.00,,CLR,0.00,VWS V14.01,2013-05-19 03:36:00,
2013-05-18 21:41:00,53.4,24.3,29.61,East,86,0.0,3.0,32,0.00,,CLR,0.00,VWS V14.01,2013-05-19 03:41:00,
2013-05-18 21:46:00,52.8,24.5,29.61,ESE,120,3.0,4.0,33,0.00,,SCT120,0.00,VWS V14.01,2013-05-19 03:46:00,
2013-05-18 21:51:00,52.5,24.2,29.61,SE,133,4.0,5.0,33,0.00,,SCT120,0.00,VWS V14.01,2013-05-19 03:51:00,
2013-05-18 21:56:00,52.4,24.2,29.61,ESE,120,2.0,5.0,33,0.00,,SCT120,0.00,VWS V14.01,2013-05-19 03:56:00,
2013-05-18 22:00:00,52.4,24.2,29.61,East,101,2.0,5.0,33,0.00,,CLR,0.00,VWS V14.01,2013-05-19 04:00:00,
2013-05-18 22:01:00,52.5,24.2,29.61,ESE,112,4.0,4.0,33,0.00,,FEW120,0.00,VWS V14.01,2013-05-19 04:01:00,
2013-05-18 22:02:00,52.6,24.3,29.61,ESE,102,4.0,5.0,33,0.00,,FEW120,0.00,VWS V14.01,2013-05-19 04:02:00,
2013-05-18 22:04:00,52.7,24.4,29.61,SE,124,3.0,5.0,33,0.00,,FEW120,0.00,VWS V14.01,2013-05-19 04:04:00,
2013-05-18 22:05:00,52.7,24.4,29.61,ESE,122,2.0,5.0,33,0.00,,FEW120,0.00,VWS V14.01,2013-05-19 04:05:00,
2013-05-18 22:10:00,52.6,24.3,29.61,ESE,113,1.0,5.0,33,0.00,,FEW120,0.00,VWS V14.01,2013-05-19 04:10:00,
2013-05-18 22:16:00,52.2,24.0,29.61,SSE,147,1.0,5.0,33,0.00,,FEW120,0.00,VWS V14.01,2013-05-19 04:16:00,
2013-05-18 22:17:00,52.0,23.8,29.61,SSE,150,1.0,5.0,33,0.00,,FEW120,0.00,VWS V14.01,2013-05-19 04:17:00,
2013-05-18 22:22:00,51.7,23.5,29.61,SSE,150,2.0,5.0,33,0.00,,FEW120,0.00,VWS V14.01,2013-05-19 04:22:00,
2013-05-18 22:27:00,51.8,23.6,29.61,SSE,155,0.0,5.0,33,0.00,,FEW120,0.00,VWS V14.01,2013-05-19 04:27:00,
2013-05-18 22:30:00,51.8,23.6,29.61,SSE,155,0.0,5.0,33,0.00,,CLR,0.00,VWS V14.01,2013-05-19 04:30:00,
2013-05-18 22:32:00,51.2,23.8,29.61,SE,131,0.0,1.0,34,0.00,,CLR,0.00,VWS V14.01,2013-05-19 04:32:00,
2013-05-18 22:37:00,51.0,23.6,29.61,SE,131,0.0,1.0,34,0.00,,CLR,0.00,VWS V14.01,2013-05-19 04:37:00,
2013-05-18 22:42:00,51.0,23.6,29.61,SE,141,2.0,2.0,34,0.00,,CLR,0.00,VWS V14.01,2013-05-19 04:42:00,
2013-05-18 22:47:00,50.7,23.4,29.62,SSE,160,0.0,2.0,34,0.00,,CLR,0.00,VWS V14.01,2013-05-19 04:47:00,
2013-05-18 22:52:00,50.5,23.9,29.62,SSE,162,0.0,2.0,35,0.00,,CLR,0.00,VWS V14.01,2013-05-19 04:52:00,
2013-05-18 22:57:00,50.7,24.1,29.62,SW,226,2.0,3.0,35,0.00,,CLR,0.00,VWS V14.01,2013-05-19 04:57:00,
2013-05-18 23:00:00,50.7,24.1,29.62,SW,235,2.0,3.0,35,0.00,,CLR,0.00,VWS V14.01,2013-05-19 05:00:00,
2013-05-18 23:02:00,51.0,24.3,29.62,SW,226,2.0,6.0,35,0.00,,SCT120,0.00,VWS V14.01,2013-05-19 05:02:00,
2013-05-18 23:07:00,51.3,23.9,29.62,SSW,201,1.0,6.0,34,0.00,,SCT120,0.00,VWS V14.01,2013-05-19 05:07:00,
2013-05-18 23:12:00,51.6,24.2,29.62,WSW,239,3.0,6.0,34,0.00,,SCT120,0.00,VWS V14.01,2013-05-19 05:12:00,
2013-05-18 23:17:00,51.5,23.4,29.62,WSW,245,2.0,6.0,33,0.00,,SCT120,0.00,VWS V14.01,2013-05-19 05:17:00,
2013-05-18 23:22:00,51.5,23.4,29.62,SW,222,3.0,6.0,33,0.00,,SCT120,0.00,VWS V14.01,2013-05-19 05:22:00,
2013-05-18 23:27:00,51.4,23.3,29.62,SW,228,4.0,4.0,33,0.00,,SCT120,0.00,VWS V14.01,2013-05-19 05:27:00,
2013-05-18 23:30:00,51.4,23.3,29.62,SW,217,4.0,6.0,33,0.00,,CLR,0.00,VWS V14.01,2013-05-19 05:30:00,
2013-05-18 23:32:00,51.1,23.7,29.62,SW,236,1.0,4.0,34,0.00,,BKN120,0.00,VWS V14.01,2013-05-19 05:32:00,
2013-05-18 23:37:00,51.1,23.7,29.62,WSW,256,1.0,6.0,34,0.00,,BKN120,0.00,VWS V14.01,2013-05-19 05:37:00,
2013-05-18 23:42:00,51.0,23.6,29.63,SW,216,1.0,6.0,34,0.00,,BKN120,0.00,VWS V14.01,2013-05-19 05:42:00,
2013-05-18 23:47:00,51.0,23.6,29.63,West,259,0.0,6.0,34,0.00,,SCT120,0.00,VWS V14.01,2013-05-19 05:47:00,
2013-05-18 23:52:00,50.7,23.4,29.64,SSE,154,0.0,6.0,34,0.00,,SCT120,0.00,VWS V14.01,2013-05-19 05:52:00,
2013-05-18 23:57:00,50.1,22.8,29.64,SSE,154,0.0,0.0,34,0.00,,SCT120,0.00,VWS V14.01,2013-05-19 05:57:00,